| time (UTC) | temp F | wind direction | speed MPH | gust MPH | rain 1hr in | rain 24hr in | rain mn in | humidity % | barometer mb |
| 20260506100116 | 44 | 72 | 13.0 | 18.0 | 0.00 | 0.00 | 0.00 | 84 | 1014.5 |
| 20260506095615 | 44 | 69 | 7.0 | 15.0 | 0.00 | 0.00 | 0.00 | 83 | 1014.2 |
| 20260506095111 | 44 | 81 | 9.0 | 17.0 | 0.00 | 0.00 | 0.00 | 82 | 1014.1 |
| 20260506094609 | 44 | 85 | 9.0 | 16.0 | 0.00 | 0.00 | 0.00 | 82 | 1013.9 |
| 20260506094106 | 44 | 79 | 15.0 | 17.0 | 0.00 | 0.00 | 0.00 | 82 | 1013.8 |
| 20260506093605 | 44 | 91 | 13.0 | 16.0 | 0.00 | 0.00 | 0.00 | 81 | 1013.7 |
| 20260506093102 | 44 | 78 | 9.0 | 13.0 | 0.00 | 0.00 | 0.00 | 81 | 1013.6 |
| 20260506092600 | 44 | 67 | 12.0 | 18.0 | 0.00 | 0.00 | 0.00 | 81 | 1013.9 |
| 20260506092056 | 44 | 74 | 9.0 | 15.0 | 0.00 | 0.00 | 0.00 | 81 | 1013.7 |
| 20260506091554 | 44 | 74 | 8.0 | 13.0 | 0.00 | 0.00 | 0.00 | 81 | 1013.6 |
| 20260506091052 | 44 | 79 | 11.0 | 17.0 | 0.00 | 0.00 | 0.00 | 81 | 1013.5 |
| 20260506090549 | 44 | 75 | 10.0 | 17.0 | 0.00 | 0.00 | 0.00 | 81 | 1013.5 |
| 20260506090045 | 44 | 84 | 8.0 | 17.0 | 0.00 | 0.00 | 0.00 | 81 | 1013.6 |
| 20260506085542 | 44 | 66 | 10.0 | 19.0 | 0.00 | 0.00 | 0.00 | 81 | 1013.3 |
| 20260506085038 | 44 | 71 | 12.0 | 16.0 | 0.00 | 0.00 | 0.00 | 81 | 1013.7 |
| 20260506084536 | 44 | 83 | 9.0 | 13.0 | 0.00 | 0.00 | 0.00 | 81 | 1013.5 |
| 20260506084032 | 44 | 75 | 10.0 | 17.0 | 0.00 | 0.00 | 0.00 | 81 | 1013.7 |
| 20260506083529 | 44 | 70 | 14.0 | 18.0 | 0.00 | 0.00 | 0.00 | 80 | 1013.3 |
| 20260506083026 | 44 | 74 | 13.0 | 15.0 | 0.00 | 0.00 | 0.00 | 81 | 1013.6 |
| 20260506082523 | 44 | 87 | 8.0 | 12.0 | 0.00 | 0.00 | 0.00 | 81 | 1013.7 |
| 20260506082019 | 44 | 83 | 7.0 | 13.0 | 0.00 | 0.00 | 0.00 | 81 | 1013.3 |
| 20260506081517 | 44 | 72 | 9.0 | 15.0 | 0.00 | 0.00 | 0.00 | 80 | 1013.3 |
| 20260506081015 | 44 | 88 | 9.0 | 14.0 | 0.00 | 0.00 | 0.00 | 80 | 1013.3 |
| 20260506080512 | 44 | 78 | 10.0 | 10.0 | 0.00 | 0.00 | 0.00 | 80 | 1013.2 |
| 20260506073455 | 43 | 70 | 9.0 | 17.0 | 0.00 | 0.00 | 0.00 | 81 | 1012.5 |
| 20260506072952 | 43 | 81 | 11.0 | 17.0 | 0.00 | 0.00 | 0.00 | 81 | 1012.5 |
| 20260506072449 | 43 | 74 | 11.0 | 14.0 | 0.00 | 0.00 | 0.00 | 82 | 1012.6 |
| 20260506071947 | 43 | 71 | 9.0 | 13.0 | 0.00 | 0.00 | 0.00 | 82 | 1013.0 |
| 20260506071445 | 43 | 43 | 6.0 | 11.0 | 0.00 | 0.00 | 0.00 | 82 | 1013.3 |
| 20260506070942 | 42 | 61 | 7.0 | 9.0 | 0.00 | 0.00 | 0.00 | 82 | 1013.7 |
| 20260506070439 | 42 | 4 | 9.0 | 11.0 | 0.00 | 0.00 | 0.00 | 82 | 1013.6 |
| 20260506062416 | 44 | 69 | 10.0 | 13.0 | 0.00 | 0.00 | 0.00 | 79 | 1013.2 |
| 20260506061912 | 44 | 63 | 11.0 | 15.0 | 0.00 | 0.00 | 0.00 | 78 | 1013.1 |
| 20260506061409 | 44 | 77 | 11.0 | 19.0 | 0.00 | 0.00 | 0.00 | 78 | 1012.9 |
| 20260506060907 | 44 | 66 | 11.0 | 15.0 | 0.00 | 0.00 | 0.00 | 77 | 1012.9 |
| 20260506060404 | 44 | 65 | 11.0 | 13.0 | 0.00 | 0.00 | 0.00 | 77 | 1012.8 |
| 20260506051336 | 45 | 82 | 8.0 | 16.0 | 0.00 | 0.00 | 0.00 | 73 | 1011.9 |
| 20260506050834 | 46 | 84 | 7.0 | 13.0 | 0.00 | 0.00 | 0.00 | 73 | 1011.7 |
| 20260506050331 | 46 | 84 | 11.0 | 16.0 | 0.00 | 0.00 | 0.00 | 72 | 1011.5 |
| 20260506044822 | 46 | 83 | 11.0 | 15.0 | 0.00 | 0.00 | 0.00 | 71 | 1011.8 |
| 20260506044320 | 47 | 87 | 13.0 | 17.0 | 0.00 | 0.00 | 0.00 | 70 | 1011.7 |
| 20260506043816 | 47 | 87 | 9.0 | 21.0 | 0.00 | 0.00 | 0.00 | 69 | 1011.7 |
| 20260506043314 | 47 | 78 | 9.0 | 12.0 | 0.00 | 0.00 | 0.00 | 68 | 1011.7 |
| 20260506042812 | 47 | 79 | 9.0 | 14.0 | 0.00 | 0.00 | 0.00 | 67 | 1011.8 |
| 20260506042311 | 48 | 95 | 8.0 | 13.0 | 0.00 | 0.00 | 0.00 | 66 | 1011.6 |
| 20260506041809 | 48 | 74 | 10.0 | 14.0 | 0.00 | 0.00 | 0.00 | 66 | 1011.6 |
| 20260506041305 | 49 | 87 | 12.0 | 15.0 | 0.00 | 0.00 | 0.00 | 65 | 1011.7 |
| 20260506040803 | 49 | 88 | 8.0 | 15.0 | 0.00 | 0.00 | 0.00 | 65 | 1011.6 |
| 20260506040300 | 49 | 82 | 9.0 | 15.0 | 0.00 | 0.00 | 0.00 | 64 | 1011.7 |
| 20260506035756 | 49 | 92 | 10.0 | 13.0 | 0.00 | 0.00 | 0.00 | 64 | 1011.7 |
| 20260506035253 | 49 | 95 | 9.0 | 14.0 | 0.00 | 0.00 | 0.00 | 63 | 1011.7 |
| 20260506034750 | 49 | 87 | 9.0 | 14.0 | 0.00 | 0.00 | 0.00 | 63 | 1011.6 |
| 20260506034248 | 50 | 89 | 14.0 | 16.0 | 0.00 | 0.00 | 0.00 | 62 | 1011.6 |
| 20260506033744 | 50 | 95 | 12.0 | 17.0 | 0.00 | 0.00 | 0.00 | 62 | 1011.5 |
| 20260506033242 | 50 | 92 | 9.0 | 17.0 | 0.00 | 0.00 | 0.00 | 61 | 1011.2 |
| 20260506032738 | 50 | 87 | 11.0 | 13.0 | 0.00 | 0.00 | 0.00 | 61 | 1011.3 |
| 20260506032235 | 50 | 96 | 12.0 | 14.0 | 0.00 | 0.00 | 0.00 | 61 | 1011.6 |
| 20260506031732 | 51 | 87 | 9.0 | 13.0 | 0.00 | 0.00 | 0.00 | 60 | 1011.2 |
| 20260506031229 | 51 | 86 | 7.0 | 11.0 | 0.00 | 0.00 | 0.00 | 60 | 1011.5 |
| 20260506030728 | 51 | 84 | 10.0 | 12.0 | 0.00 | 0.00 | 0.00 | 59 | 1011.3 |
| 20260506030225 | 51 | 74 | 9.0 | 15.0 | 0.00 | 0.00 | 0.00 | 59 | 1011.1 |
| 20260506025722 | 52 | 94 | 9.0 | 17.0 | 0.00 | 0.00 | 0.00 | 58 | 1011.2 |
| 20260506025218 | 52 | 85 | 14.0 | 16.0 | 0.00 | 0.00 | 0.00 | 58 | 1011.1 |
| 20260506024715 | 52 | 75 | 8.0 | 14.0 | 0.00 | 0.00 | 0.00 | 58 | 1011.1 |
| 20260506024211 | 52 | 78 | 10.0 | 16.0 | 0.00 | 0.00 | 0.00 | 57 | 1010.8 |
| 20260506023708 | 53 | 85 | 10.0 | 16.0 | 0.00 | 0.00 | 0.00 | 57 | 1010.7 |
| 20260506023205 | 53 | 100 | 7.0 | 15.0 | 0.00 | 0.00 | 0.00 | 56 | 1010.6 |
| 20260506022702 | 53 | 82 | 11.0 | 15.0 | 0.00 | 0.00 | 0.00 | 56 | 1011.2 |
| 20260506022200 | 53 | 84 | 10.0 | 14.0 | 0.00 | 0.00 | 0.00 | 55 | 1011.2 |
| 20260506021657 | 54 | 88 | 12.0 | 17.0 | 0.00 | 0.00 | 0.00 | 55 | 1011.0 |
| 20260506021154 | 54 | 67 | 8.0 | 15.0 | 0.00 | 0.00 | 0.00 | 55 | 1010.6 |
| 20260506020651 | 54 | 74 | 17.0 | 19.0 | 0.00 | 0.00 | 0.00 | 55 | 1010.2 |
| 20260506020149 | 55 | 66 | 12.0 | 18.0 | 0.00 | 0.00 | 0.00 | 55 | 1010.8 |
| 20260506015647 | 55 | 62 | 14.0 | 19.0 | 0.00 | 0.00 | 0.00 | 53 | 1010.7 |
| 20260506015144 | 55 | 57 | 12.0 | 15.0 | 0.00 | 0.00 | 0.00 | 53 | 1010.7 |
| 20260506014641 | 56 | 64 | 9.0 | 17.0 | 0.00 | 0.00 | 0.00 | 52 | 1010.6 |
| 20260506014136 | 56 | 63 | 17.0 | 17.0 | 0.00 | 0.00 | 0.00 | 51 | 1010.8 |
| 20260506013635 | 56 | 32 | 9.0 | 17.0 | 0.00 | 0.00 | 0.00 | 51 | 1010.4 |
| 20260506013132 | 56 | 41 | 10.0 | 17.0 | 0.00 | 0.00 | 0.00 | 50 | 1010.0 |
| 20260506012628 | 56 | 45 | 9.0 | 17.0 | 0.00 | 0.00 | 0.00 | 50 | 1009.8 |
| 20260506012124 | 57 | 34 | 8.0 | 17.0 | 0.00 | 0.00 | 0.00 | 50 | 1009.7 |
| 20260506011622 | 57 | 51 | 10.0 | 16.0 | 0.00 | 0.00 | 0.00 | 50 | 1009.7 |
| 20260506011118 | 57 | 53 | 13.0 | 14.0 | 0.00 | 0.00 | 0.00 | 49 | 1009.6 |
| 20260506010617 | 57 | 53 | 14.0 | 21.0 | 0.00 | 0.00 | 0.00 | 49 | 1009.3 |
| 20260506010114 | 58 | 62 | 12.0 | 17.0 | 0.00 | 0.00 | 0.00 | 48 | 1009.4 |
| 20260506005611 | 58 | 48 | 10.0 | 14.0 | 0.00 | 0.00 | 0.00 | 48 | 1009.1 |
| 20260506005107 | 58 | 57 | 15.0 | 18.0 | 0.00 | 0.00 | 0.00 | 48 | 1008.8 |
| 20260506004604 | 58 | 70 | 19.0 | 21.0 | 0.00 | 0.00 | 0.00 | 47 | 1009.0 |
| 20260506004101 | 59 | 46 | 13.0 | 18.0 | 0.00 | 0.00 | 0.00 | 47 | 1008.9 |
| 20260506003557 | 59 | 52 | 11.0 | 21.0 | 0.00 | 0.00 | 0.00 | 46 | 1008.8 |
| 20260506003053 | 59 | 64 | 19.0 | 21.0 | 0.00 | 0.00 | 0.00 | 46 | 1008.4 |
| 20260506002549 | 60 | 69 | 16.0 | 18.0 | 0.00 | 0.00 | 0.00 | 45 | 1008.6 |
| 20260506002045 | 60 | 72 | 15.0 | 22.0 | 0.00 | 0.00 | 0.00 | 45 | 1008.6 |
| 20260506001541 | 60 | 59 | 14.0 | 17.0 | 0.00 | 0.00 | 0.00 | 46 | 1008.4 |
| 20260506001039 | 60 | 69 | 19.0 | 22.0 | 0.00 | 0.00 | 0.00 | 45 | 1008.3 |
| 20260506000536 | 60 | 72 | 18.0 | 21.0 | 0.00 | 0.00 | 0.00 | 45 | 1008.7 |
| 20260506000034 | 61 | 81 | 13.0 | 21.0 | 0.00 | 0.00 | 0.00 | 45 | 1008.6 |
| 20260505235531 | 61 | 66 | 15.0 | 19.0 | 0.00 | 0.00 | 0.00 | 44 | 1008.4 |
| 20260505235028 | 61 | 78 | 11.0 | 19.0 | 0.00 | 0.00 | 0.00 | 45 | 1008.7 |
| 20260505234525 | 62 | 69 | 12.0 | 16.0 | 0.00 | 0.00 | 0.00 | 44 | 1008.3 |
| 20260505234022 | 62 | 78 | 7.0 | 17.0 | 0.00 | 0.00 | 0.00 | 44 | 1008.4 |
| 20260505233519 | 62 | 50 | 9.0 | 15.0 | 0.00 | 0.00 | 0.00 | 44 | 1008.6 |
| 20260505233017 | 62 | 95 | 10.0 | 15.0 | 0.00 | 0.00 | 0.00 | 44 | 1008.6 |
| 20260505232514 | 63 | 81 | 8.0 | 13.0 | 0.00 | 0.00 | 0.00 | 44 | 1008.7 |
| 20260505232012 | 62 | 95 | 10.0 | 21.0 | 0.00 | 0.00 | 0.00 | 44 | 1008.7 |
| 20260505231509 | 62 | 53 | 11.0 | 18.0 | 0.00 | 0.00 | 0.00 | 44 | 1008.8 |
| 20260505231008 | 62 | 72 | 7.0 | 15.0 | 0.00 | 0.00 | 0.00 | 44 | 1008.7 |
| 20260505230504 | 62 | 55 | 13.0 | 15.0 | 0.00 | 0.00 | 0.00 | 44 | 1008.8 |
| 20260505230000 | 62 | 92 | 12.0 | 17.0 | 0.00 | 0.00 | 0.00 | 44 | 1008.8 |
| 20260505225458 | 62 | 87 | 13.0 | 17.0 | 0.00 | 0.00 | 0.00 | 44 | 1009.0 |
| 20260505224954 | 62 | 86 | 6.0 | 13.0 | 0.00 | 0.00 | 0.00 | 44 | 1008.8 |
| 20260505224450 | 62 | 76 | 8.0 | 16.0 | 0.00 | 0.00 | 0.00 | 44 | 1009.0 |
| 20260505223948 | 62 | 62 | 11.0 | 18.0 | 0.00 | 0.00 | 0.00 | 44 | 1008.9 |
| 20260505223445 | 62 | 65 | 13.0 | 15.0 | 0.00 | 0.00 | 0.00 | 44 | 1008.9 |
| 20260505222941 | 63 | 48 | 12.0 | 14.0 | 0.00 | 0.00 | 0.00 | 43 | 1009.1 |
| 20260505222437 | 63 | 59 | 11.0 | 14.0 | 0.00 | 0.00 | 0.00 | 43 | 1008.9 |
| 20260505221933 | 63 | 75 | 14.0 | 15.0 | 0.00 | 0.00 | 0.00 | 42 | 1009.1 |
| 20260505221431 | 63 | 57 | 16.0 | 17.0 | 0.00 | 0.00 | 0.00 | 43 | 1008.9 |
| 20260505220928 | 64 | 49 | 9.0 | 12.0 | 0.00 | 0.00 | 0.00 | 42 | 1009.2 |
| 20260505220425 | 63 | 91 | 5.0 | 13.0 | 0.00 | 0.00 | 0.00 | 43 | 1009.3 |
| 20260505215922 | 63 | 63 | 9.0 | 11.0 | 0.00 | 0.00 | 0.00 | 43 | 1009.2 |
| 20260505215420 | 63 | 74 | 14.0 | 14.0 | 0.00 | 0.00 | 0.00 | 42 | 1009.3 |
| 20260505214918 | 64 | 66 | 9.0 | 18.0 | 0.00 | 0.00 | 0.00 | 41 | 1009.0 |
| 20260505214415 | 64 | 67 | 11.0 | 16.0 | 0.00 | 0.00 | 0.00 | 41 | 1009.4 |
| 20260505213912 | 65 | 51 | 8.0 | 11.0 | 0.00 | 0.00 | 0.00 | 41 | 1009.8 |
| 20260505213410 | 65 | 41 | 4.0 | 10.0 | 0.00 | 0.00 | 0.00 | 40 | 1009.8 |
| 20260505212906 | 65 | 74 | 4.0 | 6.0 | 0.00 | 0.00 | 0.00 | 40 | 1010.1 |
| 20260505212403 | 64 | 93 | 5.0 | 8.0 | 0.00 | 0.00 | 0.00 | 43 | 1009.9 |
| 20260505211859 | 64 | 32 | 8.0 | 12.0 | 0.00 | 0.00 | 0.00 | 42 | 1010.2 |
| 20260505211357 | 64 | 114 | 5.0 | 8.0 | 0.00 | 0.00 | 0.00 | 43 | 1010.2 |
| 20260505210853 | 64 | 65 | 6.0 | 10.0 | 0.00 | 0.00 | 0.00 | 42 | 1010.3 |
| 20260505210350 | 62 | 92 | 8.0 | 11.0 | 0.00 | 0.00 | 0.00 | 43 | 1010.3 |
| 20260505205847 | 63 | 22 | 8.0 | 11.0 | 0.00 | 0.00 | 0.00 | 43 | 1010.3 |
| 20260505205346 | 63 | 44 | 5.0 | 9.0 | 0.00 | 0.00 | 0.00 | 42 | 1010.6 |
| 20260505204842 | 62 | 299 | 4.0 | 6.0 | 0.00 | 0.00 | 0.00 | 43 | 1010.7 |
| 20260505204340 | 62 | 7 | 8.0 | 14.0 | 0.00 | 0.00 | 0.00 | 43 | 1011.0 |
| 20260505203837 | 63 | 35 | 6.0 | 11.0 | 0.00 | 0.00 | 0.00 | 43 | 1010.6 |
| 20260505203333 | 63 | 96 | 6.0 | 10.0 | 0.00 | 0.00 | 0.00 | 43 | 1010.8 |
| 20260505202830 | 62 | 74 | 13.0 | 15.0 | 0.00 | 0.00 | 0.00 | 45 | 1010.8 |
| 20260505202326 | 63 | 69 | 12.0 | 15.0 | 0.00 | 0.00 | 0.00 | 43 | 1010.7 |
| 20260505201823 | 62 | 22 | 4.0 | 11.0 | 0.00 | 0.00 | 0.00 | 44 | 1010.8 |
| 20260505201320 | 62 | 2 | 8.0 | 11.0 | 0.00 | 0.00 | 0.00 | 44 | 1010.9 |
| 20260505200818 | 61 | 16 | 6.0 | 10.0 | 0.00 | 0.00 | 0.00 | 44 | 1010.7 |
| 20260505200315 | 62 | 20 | 7.0 | 15.0 | 0.00 | 0.00 | 0.00 | 44 | 1011.0 |
| 20260505195810 | 61 | 2 | 8.0 | 10.0 | 0.00 | 0.00 | 0.00 | 45 | 1010.7 |
| 20260505195308 | 62 | 74 | 11.0 | 13.0 | 0.00 | 0.00 | 0.00 | 45 | 1010.8 |
| 20260505194805 | 62 | 52 | 13.0 | 14.0 | 0.00 | 0.00 | 0.00 | 47 | 1010.4 |
| 20260505194302 | 61 | 23 | 8.0 | 13.0 | 0.00 | 0.00 | 0.00 | 45 | 1010.7 |
| 20260505193757 | 61 | 57 | 9.0 | 17.0 | 0.00 | 0.00 | 0.00 | 45 | 1010.7 |
| 20260505193255 | 62 | 67 | 13.0 | 18.0 | 0.00 | 0.00 | 0.00 | 45 | 1010.7 |
| 20260505192753 | 62 | 16 | 9.0 | 11.0 | 0.00 | 0.00 | 0.00 | 44 | 1010.8 |
| 20260505192251 | 61 | 14 | 9.0 | 13.0 | 0.00 | 0.00 | 0.00 | 44 | 1010.7 |
| 20260505191748 | 62 | 27 | 9.0 | 16.0 | 0.00 | 0.00 | 0.00 | 43 | 1010.9 |
| 20260505191247 | 62 | 32 | 11.0 | 14.0 | 0.00 | 0.00 | 0.00 | 43 | 1010.9 |
| 20260505190743 | 61 | 24 | 11.0 | 15.0 | 0.00 | 0.00 | 0.00 | 44 | 1011.0 |
| 20260505190243 | 61 | 54 | 8.0 | 17.0 | 0.00 | 0.00 | 0.00 | 45 | 1010.9 |
| 20260505185739 | 60 | 43 | 9.0 | 18.0 | 0.00 | 0.00 | 0.00 | 47 | 1011.1 |
| 20260505185236 | 60 | 28 | 8.0 | 10.0 | 0.00 | 0.00 | 0.00 | 46 | 1010.9 |
| 20260505184732 | 60 | 36 | 11.0 | 15.0 | 0.00 | 0.00 | 0.00 | 46 | 1010.9 |
| 20260505184230 | 60 | 355 | 9.0 | 12.0 | 0.00 | 0.00 | 0.00 | 47 | 1011.1 |
| 20260505183726 | 60 | 15 | 12.0 | 16.0 | 0.00 | 0.00 | 0.00 | 46 | 1011.6 |
| 20260505183224 | 60 | 3 | 6.0 | 15.0 | 0.00 | 0.00 | 0.00 | 46 | 1010.8 |
| 20260505182720 | 61 | 8 | 8.0 | 12.0 | 0.00 | 0.00 | 0.00 | 45 | 1010.9 |
| 20260505182217 | 59 | 6 | 10.0 | 12.0 | 0.00 | 0.00 | 0.00 | 47 | 1010.9 |
| 20260505181713 | 59 | 33 | 14.0 | 21.0 | 0.00 | 0.00 | 0.00 | 46 | 1011.2 |
| 20260505181211 | 59 | 0 | 8.0 | 16.0 | 0.00 | 0.00 | 0.00 | 47 | 1011.1 |
| 20260505180707 | 60 | 351 | 12.0 | 15.0 | 0.00 | 0.00 | 0.00 | 46 | 1011.3 |
| 20260505180204 | 59 | 29 | 6.0 | 14.0 | 0.00 | 0.00 | 0.00 | 48 | 1011.1 |
| 20260505175700 | 60 | 18 | 10.0 | 15.0 | 0.00 | 0.00 | 0.00 | 46 | 1011.3 |
| 20260505175157 | 60 | 30 | 11.0 | 14.0 | 0.00 | 0.00 | 0.00 | 46 | 1011.2 |
| 20260505174653 | 61 | 7 | 16.0 | 17.0 | 0.00 | 0.00 | 0.00 | 45 | 1011.1 |
| 20260505174149 | 59 | 17 | 11.0 | 19.0 | 0.00 | 0.00 | 0.00 | 47 | 1011.1 |
| 20260505173646 | 62 | 34 | 6.0 | 17.0 | 0.00 | 0.00 | 0.00 | 44 | 1011.0 |
| 20260505173144 | 60 | 34 | 11.0 | 21.0 | 0.00 | 0.00 | 0.00 | 46 | 1010.8 |
| 20260505172641 | 60 | 354 | 10.0 | 15.0 | 0.00 | 0.00 | 0.00 | 47 | 1011.1 |
| 20260505172137 | 61 | 9 | 14.0 | 19.0 | 0.00 | 0.00 | 0.00 | 46 | 1010.9 |
| 20260505171632 | 59 | 34 | 7.0 | 15.0 | 0.00 | 0.00 | 0.00 | 47 | 1010.9 |
| 20260505171129 | 61 | 1 | 10.0 | 15.0 | 0.00 | 0.00 | 0.00 | 45 | 1011.0 |
| 20260505170627 | 61 | 41 | 11.0 | 19.0 | 0.00 | 0.00 | 0.00 | 46 | 1011.3 |
| 20260505170123 | 59 | 50 | 9.0 | 18.0 | 0.00 | 0.00 | 0.00 | 49 | 1010.9 |
| 20260505165618 | 59 | 49 | 11.0 | 18.0 | 0.00 | 0.00 | 0.00 | 49 | 1010.8 |
| 20260505165114 | 59 | 0 | 16.0 | 20.0 | 0.00 | 0.00 | 0.00 | 48 | 1011.2 |
| 20260505164610 | 59 | 45 | 12.0 | 19.0 | 0.00 | 0.00 | 0.00 | 48 | 1011.0 |
| 20260505164108 | 59 | 33 | 8.0 | 15.0 | 0.00 | 0.00 | 0.00 | 48 | 1011.0 |
| 20260505163606 | 59 | 25 | 8.0 | 19.0 | 0.00 | 0.00 | 0.00 | 49 | 1011.1 |
| 20260505163103 | 59 | 39 | 9.0 | 16.0 | 0.00 | 0.00 | 0.00 | 49 | 1011.3 |
| 20260505162600 | 57 | 30 | 15.0 | 17.0 | 0.00 | 0.00 | 0.00 | 51 | 1011.2 |
| 20260505162058 | 57 | 13 | 14.0 | 17.0 | 0.00 | 0.00 | 0.00 | 50 | 1011.1 |
| 20260505161555 | 58 | 16 | 11.0 | 17.0 | 0.00 | 0.00 | 0.00 | 49 | 1011.2 |
| 20260505161052 | 58 | 17 | 9.0 | 19.0 | 0.00 | 0.00 | 0.00 | 49 | 1010.9 |
| 20260505160550 | 58 | 17 | 15.0 | 16.0 | 0.00 | 0.00 | 0.00 | 47 | 1011.0 |
| 20260505153026 | 57 | 11 | 13.0 | 20.0 | 0.00 | 0.00 | 0.00 | 48 | 1010.4 |
| 20260505152523 | 56 | 7 | 18.0 | 20.0 | 0.00 | 0.00 | 0.00 | 49 | 1010.3 |
| 20260505152019 | 56 | 14 | 16.0 | 19.0 | 0.00 | 0.00 | 0.00 | 49 | 1010.1 |
| 20260505151514 | 56 | 34 | 18.0 | 18.0 | 0.00 | 0.00 | 0.00 | 49 | 1010.0 |
| 20260505151012 | 57 | 352 | 14.0 | 16.0 | 0.00 | 0.00 | 0.00 | 47 | 1010.1 |
| 20260505150508 | 55 | 21 | 11.0 | 23.0 | 0.00 | 0.00 | 0.00 | 49 | 1010.2 |
| 20260505140433 | 53 | 16 | 13.0 | 19.0 | 0.00 | 0.00 | 0.00 | 51 | 1009.9 |
| 20260505124847 | 54 | 353 | 12.0 | 17.0 | 0.00 | 0.00 | 0.00 | 53 | 1008.0 |
| 20260505124344 | 54 | 351 | 11.0 | 16.0 | 0.00 | 0.00 | 0.00 | 54 | 1008.1 |
| 20260505123839 | 54 | 343 | 15.0 | 21.0 | 0.00 | 0.00 | 0.00 | 54 | 1007.8 |
| 20260505123337 | 54 | 340 | 12.0 | 19.0 | 0.00 | 0.00 | 0.00 | 54 | 1007.8 |
| 20260505122832 | 54 | 2 | 12.0 | 16.0 | 0.00 | 0.00 | 0.00 | 54 | 1007.7 |
| 20260505122330 | 54 | 353 | 12.0 | 14.0 | 0.00 | 0.00 | 0.00 | 54 | 1007.3 |
| 20260505121826 | 54 | 351 | 10.0 | 17.0 | 0.00 | 0.00 | 0.00 | 54 | 1007.6 |
| 20260505121324 | 54 | 15 | 13.0 | 19.0 | 0.00 | 0.00 | 0.00 | 55 | 1007.2 |
| 20260505120820 | 54 | 3 | 12.0 | 17.0 | 0.00 | 0.00 | 0.00 | 55 | 1007.1 |
| 20260505120316 | 55 | 19 | 15.0 | 18.0 | 0.00 | 0.00 | 0.00 | 55 | 1007.3 |
| 20260505115814 | 55 | 8 | 12.0 | 19.0 | 0.00 | 0.00 | 0.00 | 56 | 1007.3 |
| 20260505115312 | 55 | 359 | 14.0 | 15.0 | 0.00 | 0.00 | 0.00 | 56 | 1007.2 |
| 20260505114809 | 55 | 359 | 13.0 | 18.0 | 0.00 | 0.00 | 0.00 | 56 | 1007.0 |
| 20260505114305 | 55 | 1 | 13.0 | 16.0 | 0.00 | 0.00 | 0.00 | 56 | 1007.2 |
| 20260505113757 | 55 | 21 | 15.0 | 18.0 | 0.00 | 0.00 | 0.00 | 56 | 1007.1 |
| 20260505113253 | 55 | 18 | 12.0 | 15.0 | 0.00 | 0.00 | 0.00 | 57 | 1007.2 |
| 20260505112748 | 56 | 354 | 13.0 | 22.0 | 0.00 | 0.00 | 0.00 | 57 | 1007.0 |
| 20260505112246 | 56 | 343 | 11.0 | 18.0 | 0.00 | 0.00 | 0.00 | 58 | 1007.1 |
| 20260505111741 | 56 | 3 | 19.0 | 20.0 | 0.00 | 0.00 | 0.00 | 58 | 1007.0 |
| 20260505111237 | 56 | 8 | 12.0 | 14.0 | 0.00 | 0.00 | 0.00 | 58 | 1007.0 |
| 20260505110733 | 57 | 0 | 11.0 | 19.0 | 0.00 | 0.00 | 0.00 | 58 | 1006.8 |
| 20260505110231 | 57 | 352 | 12.0 | 22.0 | 0.00 | 0.00 | 0.00 | 58 | 1006.7 |
| 20260505102207 | 60 | 329 | 13.0 | 21.0 | 0.00 | 0.00 | 0.00 | 48 | 1006.2 |
| 20260505101705 | 61 | 334 | 15.0 | 23.0 | 0.00 | 0.00 | 0.00 | 44 | 1005.8 |
| 20260505101201 | 62 | 350 | 18.0 | 24.0 | 0.00 | 0.00 | 0.00 | 41 | 1005.8 |
| 20260505100657 | 63 | 328 | 19.0 | 26.0 | 0.00 | 0.00 | 0.00 | 37 | 1005.6 |
| 20260505100154 | 64 | 315 | 13.0 | 23.0 | 0.00 | 0.00 | 0.00 | 34 | 1005.7 |